,,,PA_Meas_PMT16A,,PR_Meas_QMR101_102,,RH_Meas_QMH101,,SR_Meas_QMS101,,TA_Meas_QMH101,,GenWind,,GenWind,
date,time,status,PA,status,PR,status,RH,status,SR,status,TA,status,DirAvg,status,SpdAvg,
2008-07-01, 00:00:05,VALID,1011.88,VALID,0,VALID,94.445,VALID,0,VALID,23.8517,VALID,357,VALID,0.211719,
2008-07-01, 00:01:05,VALID,1011.87,VALID,0,VALID,94.3992,VALID,0,VALID,23.8304,VALID,357,VALID,0.278125,
2008-07-01, 00:02:05,VALID,1011.82,VALID,0,VALID,94.3687,VALID,0,VALID,23.8517,VALID,357,VALID,0.341016,
2008-07-01, 00:03:05,VALID,1011.81,VALID,0,VALID,94.3763,VALID,0,VALID,23.8517,VALID,357,VALID,0.274219,
2008-07-01, 00:04:05,VALID,1011.8,VALID,0,VALID,94.3458,VALID,0,VALID,23.8322,VALID,357,VALID,0.195313,
2008-07-01, 00:05:05,VALID,1011.83,VALID,0,VALID,94.3458,VALID,0,VALID,23.7932,VALID,357,VALID,0.190625,
2008-07-01, 00:06:05,VALID,1011.85,VALID,0,VALID,94.3458,VALID,0,VALID,23.7525,VALID,357,VALID,0.138281,
2008-07-01, 00:07:05,VALID,1011.83,VALID,0,VALID,94.3611,VALID,0,VALID,23.733,VALID,357,VALID,0,
2008-07-01, 00:08:05,VALID,1011.87,VALID,0,VALID,94.3916,VALID,0,VALID,23.7135,VALID,357,VALID,0,
2008-07-01, 00:09:05,VALID,1011.91,VALID,0,VALID,94.3763,VALID,0,VALID,23.7135,VALID,357,VALID,0,
2008-07-01, 00:10:05,VALID,1011.88,VALID,0,VALID,94.3687,VALID,0,VALID,23.694,VALID,357,VALID,0,
2008-07-01, 00:11:05,VALID,1011.9,VALID,0,VALID,94.3992,VALID,0,VALID,23.6745,VALID,357,VALID,0,
2008-07-01, 00:12:05,VALID,1011.87,VALID,0,VALID,94.4297,VALID,0,VALID,23.655,VALID,357,VALID,0.240625,
2008-07-01, 00:13:05,VALID,1011.87,VALID,0,VALID,94.4221,VALID,0,VALID,23.6356,VALID,357,VALID,0.153906,
2008-07-01, 00:14:05,VALID,1011.9,VALID,0,VALID,94.3992,VALID,0,VALID,23.5771,VALID,357,VALID,0.209766,
2008-07-01, 00:15:05,VALID,1011.89,VALID,0,VALID,94.3763,VALID,0,VALID,23.5576,VALID,357,VALID,0.303125,
2008-07-01, 00:16:05,VALID,1011.89,VALID,0,VALID,94.3992,VALID,0,VALID,23.5576,VALID,357,VALID,0.244531,
2008-07-01, 00:17:05,VALID,1011.92,VALID,0,VALID,94.4145,VALID,0,VALID,23.5576,VALID,357,VALID,0.165234,
2008-07-01, 00:18:05,VALID,1011.91,VALID,0,VALID,94.4373,VALID,0,VALID,23.5381,VALID,357,VALID,0.173828,
2008-07-01, 00:19:05,VALID,1011.91,VALID,0,VALID,94.4831,VALID,0,VALID,23.5399,VALID,357,VALID,0.222656,
2008-07-01, 00:20:05,VALID,1011.92,VALID,0,VALID,94.5288,VALID,0,VALID,23.5186,VALID,357,VALID,0.182812,
2008-07-01, 00:21:05,VALID,1011.91,VALID,0,VALID,94.5517,VALID,0,VALID,23.5186,VALID,357,VALID,0.170312,
2008-07-01, 00:22:05,VALID,1011.9,VALID,0,VALID,94.5975,VALID,0,VALID,23.4992,VALID,357,VALID,0.0335938,
2008-07-01, 00:23:05,VALID,1011.9,VALID,0,VALID,94.6127,VALID,0,VALID,23.4797,VALID,357,VALID,0,
2008-07-01, 00:24:05,VALID,1011.89,VALID,0,VALID,94.628,VALID,0,VALID,23.4797,VALID,357,VALID,0,
2008-07-01, 00:25:05,VALID,1011.87,VALID,0,VALID,94.6814,VALID,0,VALID,23.4797,VALID,357,VALID,0,
2008-07-01, 00:26:05,VALID,1011.85,VALID,0,VALID,94.7271,VALID,0,VALID,23.4602,VALID,357,VALID,0,
2008-07-01, 00:27:05,VALID,1011.79,VALID,0,VALID,94.7881,VALID,0,VALID,23.4602,VALID,357,VALID,0,
2008-07-01, 00:28:05,VALID,1011.79,VALID,0,VALID,94.8186,VALID,0,VALID,23.4407,VALID,357,VALID,0,
2008-07-01, 00:29:05,VALID,1011.77,VALID,0,VALID,94.8568,VALID,0,VALID,23.4407,VALID,357,VALID,0,
2008-07-01, 00:30:05,VALID,1011.77,VALID,0,VALID,94.8873,VALID,0,VALID,23.462,VALID,357,VALID,0,
2008-07-01, 00:31:05,VALID,1011.77,VALID,0,VALID,94.9254,VALID,0,VALID,23.462,VALID,357,VALID,0,
2008-07-01, 00:32:05,VALID,1011.78,VALID,0,VALID,94.933,VALID,0,VALID,23.4212,VALID,357,VALID,0,
2008-07-01, 00:33:05,VALID,1011.78,VALID,0,VALID,94.9788,VALID,0,VALID,23.4212,VALID,357,VALID,0,
2008-07-01, 00:34:05,VALID,1011.75,VALID,0,VALID,95.0016,VALID,0,VALID,23.4212,VALID,357,VALID,0.00234375,
2008-07-01, 00:35:05,VALID,1011.74,VALID,0,VALID,94.994,VALID,0,VALID,23.423,VALID,357,VALID,0.321484,
2008-07-01, 00:36:05,VALID,1011.74,VALID,0,VALID,94.9864,VALID,0,VALID,23.3823,VALID,357,VALID,0.378516,
2008-07-01, 00:37:05,VALID,1011.74,VALID,0,VALID,94.994,VALID,0,VALID,23.4017,VALID,357,VALID,0.270312,
2008-07-01, 00:38:05,VALID,1011.77,VALID,0,VALID,95.0093,VALID,0,VALID,23.3628,VALID,357,VALID,0.171484,
2008-07-01, 00:39:05,VALID,1011.78,VALID,0,VALID,95.0169,VALID,0,VALID,23.3628,VALID,357,VALID,0.105078,
2008-07-01, 00:40:05,VALID,1011.78,VALID,0,VALID,95.0169,VALID,0,VALID,23.3628,VALID,357,VALID,0.15625,
2008-07-01, 00:41:05,VALID,1011.79,VALID,0,VALID,94.9635,VALID,0,VALID,23.3433,VALID,357,VALID,0.30625,
2008-07-01, 00:42:05,VALID,1011.79,VALID,0,VALID,94.8873,VALID,0,VALID,23.3043,VALID,357,VALID,0.346094,
2008-07-01, 00:43:05,VALID,1011.78,VALID,0,VALID,94.8949,VALID,0,VALID,23.2848,VALID,357,VALID,0.313672,
2008-07-01, 00:44:05,VALID,1011.76,VALID,0,VALID,94.8873,VALID,0,VALID,23.2654,VALID,357,VALID,0.560547,
2008-07-01, 00:45:05,VALID,1011.75,VALID,0,VALID,94.8796,VALID,0,VALID,23.2671,VALID,357,VALID,0.508203,
2008-07-01, 00:46:05,VALID,1011.72,VALID,0,VALID,94.9101,VALID,0,VALID,23.2476,VALID,357,VALID,0.532812,
2008-07-01, 00:47:05,VALID,1011.73,VALID,0,VALID,94.9101,VALID,0,VALID,23.2282,VALID,357,VALID,0.455859,
2008-07-01, 00:48:04,VALID,1011.68,VALID,0,VALID,94.8949,VALID,0,VALID,23.1874,VALID,357,VALID,0.371094,
2008-07-01, 00:49:04,VALID,1011.67,VALID,0,VALID,94.9025,VALID,0,VALID,23.1679,VALID,358,VALID,0.498047,
2008-07-01, 00:50:04,VALID,1011.63,VALID,0,VALID,94.9025,VALID,0,VALID,23.129,VALID,10,VALID,0.446094,
2008-07-01, 00:51:04,VALID,1011.63,VALID,0,VALID,94.9559,VALID,0,VALID,23.1485,VALID,13,VALID,0.448047,
2008-07-01, 00:52:04,VALID,1011.61,VALID,0,VALID,94.9559,VALID,0,VALID,23.1502,VALID,13,VALID,0.291016,
2008-07-01, 00:53:04,VALID,1011.59,VALID,0,VALID,94.9406,VALID,0,VALID,23.1307,VALID,13,VALID,0.196875,
2008-07-01, 00:54:04,VALID,1011.54,VALID,0,VALID,94.933,VALID,0,VALID,23.1112,VALID,13,VALID,0.0726563,
2008-07-01, 00:55:04,VALID,1011.56,VALID,0,VALID,94.933,VALID,0,VALID,23.09,VALID,13,VALID,0.160547,
2008-07-01, 00:56:04,VALID,1011.52,VALID,0,VALID,94.9635,VALID,0,VALID,23.0723,VALID,13,VALID,0.136719,
2008-07-01, 00:57:04,VALID,1011.5,VALID,0,VALID,94.9635,VALID,0,VALID,23.0511,VALID,13,VALID,0.220703,
2008-07-01, 00:58:04,VALID,1011.47,VALID,0,VALID,95.0245,VALID,0,VALID,23.0511,VALID,13,VALID,0.318359,
2008-07-01, 00:59:04,VALID,1011.44,VALID,0,VALID,95.0931,VALID,0,VALID,23.0705,VALID,13,VALID,0.300781,
2008-07-01, 01:00:04,VALID,1011.46,VALID,0,VALID,95.1465,VALID,0,VALID,23.0705,VALID,2,VALID,0.371094,
2008-07-01, 01:01:04,VALID,1011.41,VALID,0,VALID,95.1847,VALID,0,VALID,23.0705,VALID,345,VALID,0.233203,
2008-07-01, 01:02:04,VALID,1011.41,VALID,0,VALID,95.1923,VALID,0,VALID,23.09,VALID,345,VALID,0.309375,
2008-07-01, 01:03:04,VALID,1011.4,VALID,0,VALID,95.1694,VALID,0,VALID,23.09,VALID,345,VALID,0.160156,
2008-07-01, 01:04:04,VALID,1011.42,VALID,0,VALID,95.1694,VALID,0,VALID,23.09,VALID,345,VALID,0.133594,
2008-07-01, 01:05:04,VALID,1011.43,VALID,0,VALID,95.1694,VALID,0,VALID,23.0705,VALID,345,VALID,0.242969,
2008-07-01, 01:06:04,VALID,1011.41,VALID,0,VALID,95.1542,VALID,0,VALID,23.0511,VALID,352,VALID,0.367188,
2008-07-01, 01:07:04,VALID,1011.42,VALID,0,VALID,95.1618,VALID,0,VALID,23.0705,VALID,27,VALID,0.342578,
2008-07-01, 01:08:04,VALID,1011.38,VALID,0,VALID,95.2228,VALID,0,VALID,23.09,VALID,27,VALID,0.383984,
2008-07-01, 01:09:04,VALID,1011.33,VALID,0,VALID,95.2457,VALID,0,VALID,23.1095,VALID,27,VALID,0.391797,
2008-07-01, 01:10:04,VALID,1011.32,VALID,0,VALID,95.2304,VALID,0,VALID,23.09,VALID,38,VALID,0.4125,
2008-07-01, 01:11:04,VALID,1011.31,VALID,0,VALID,95.1999,VALID,0,VALID,23.0705,VALID,38,VALID,0.244531,
2008-07-01, 01:12:04,VALID,1011.28,VALID,0,VALID,95.177,VALID,0,VALID,23.0705,VALID,38,VALID,0.0910156,
2008-07-01, 01:13:04,VALID,1011.26,VALID,0,VALID,95.1694,VALID,0,VALID,23.0705,VALID,38,VALID,0,
2008-07-01, 01:14:04,VALID,1011.25,VALID,0,VALID,95.1923,VALID,0,VALID,23.0705,VALID,38,VALID,0,
2008-07-01, 01:15:04,VALID,1011.22,VALID,0,VALID,95.177,VALID,0,VALID,23.0511,VALID,38,VALID,0,
2008-07-01, 01:16:04,VALID,1011.21,VALID,0,VALID,95.177,VALID,0,VALID,23.0705,VALID,38,VALID,0,
2008-07-01, 01:17:04,VALID,1011.2,VALID,0,VALID,95.177,VALID,0,VALID,23.0918,VALID,38,VALID,0,
2008-07-01, 01:18:04,VALID,1011.22,VALID,0,VALID,95.2075,VALID,0,VALID,23.0511,VALID,38,VALID,0,
2008-07-01, 01:19:04,VALID,1011.21,VALID,0,VALID,95.1847,VALID,0,VALID,23.0705,VALID,38,VALID,0,
2008-07-01, 01:20:04,VALID,1011.2,VALID,0,VALID,95.1923,VALID,0,VALID,23.0511,VALID,38,VALID,0,
2008-07-01, 01:21:04,VALID,1011.21,VALID,0,VALID,95.2228,VALID,0,VALID,23.0528,VALID,38,VALID,0,
2008-07-01, 01:22:04,VALID,1011.21,VALID,0,VALID,95.2533,VALID,0,VALID,23.0705,VALID,38,VALID,0,
2008-07-01, 01:23:04,VALID,1011.19,VALID,0,VALID,95.2685,VALID,0,VALID,23.0511,VALID,38,VALID,0,
2008-07-01, 01:24:04,VALID,1011.18,VALID,0,VALID,95.3143,VALID,0,VALID,23.0705,VALID,38,VALID,0,
2008-07-01, 01:25:04,VALID,1011.17,VALID,0,VALID,95.3067,VALID,0,VALID,23.09,VALID,38,VALID,0.193359,
2008-07-01, 01:26:04,VALID,1011.16,VALID,0,VALID,95.2914,VALID,0,VALID,23.1112,VALID,38,VALID,0.242578,
2008-07-01, 01:27:04,VALID,1011.13,VALID,0,VALID,95.3067,VALID,0,VALID,23.09,VALID,38,VALID,0.168359,
2008-07-01, 01:28:04,VALID,1011.12,VALID,0,VALID,95.2914,VALID,0,VALID,23.1112,VALID,38,VALID,0.161328,
2008-07-01, 01:29:04,VALID,1011.07,VALID,0,VALID,95.238,VALID,0,VALID,23.0705,VALID,38,VALID,0.297656,
2008-07-01, 01:30:04,VALID,1011.08,VALID,0,VALID,95.2152,VALID,0,VALID,23.0918,VALID,38,VALID,0.316797,
2008-07-01, 01:31:04,VALID,1011.08,VALID,0,VALID,95.1923,VALID,0,VALID,23.0528,VALID,38,VALID,0.403516,
2008-07-01, 01:32:04,VALID,1011.09,VALID,0,VALID,95.1542,VALID,0,VALID,23.0528,VALID,39,VALID,0.508594,
2008-07-01, 01:33:04,VALID,1011.09,VALID,0,VALID,95.1542,VALID,0,VALID,23.0121,VALID,41,VALID,0.634375,
2008-07-01, 01:34:04,VALID,1011.1,VALID,0,VALID,95.1313,VALID,0,VALID,23.0138,VALID,55,VALID,0.583984,
2008-07-01, 01:35:04,VALID,1011.1,VALID,0,VALID,95.1236,VALID,0,VALID,22.9926,VALID,41,VALID,0.483203,
2008-07-01, 01:36:04,VALID,1011.07,VALID,0,VALID,95.116,VALID,0,VALID,22.9731,VALID,355,VALID,0.436719,
2008-07-01, 01:37:04,VALID,1011.03,VALID,0,VALID,95.116,VALID,0,VALID,22.9943,VALID,31,VALID,0.623047,
2008-07-01, 01:38:04,VALID,1011.02,VALID,0,VALID,95.1236,VALID,0,VALID,22.9731,VALID,332,VALID,0.727734,
2008-07-01, 01:39:04,VALID,1010.98,VALID,0,VALID,95.1236,VALID,0,VALID,22.9536,VALID,327,VALID,0.582422,
2008-07-01, 01:40:04,VALID,1010.97,VALID,0,VALID,95.0626,VALID,0,VALID,22.9536,VALID,337,VALID,0.492969,
2008-07-01, 01:41:04,VALID,1010.97,VALID,0,VALID,95.0321,VALID,0,VALID,22.9342,VALID,354,VALID,0.504687,
2008-07-01, 01:42:04,VALID,1010.97,VALID,0,VALID,94.994,VALID,0,VALID,22.9147,VALID,19,VALID,0.696484,
2008-07-01, 01:43:04,VALID,1010.98,VALID,0,VALID,94.9864,VALID,0,VALID,22.8757,VALID,39,VALID,0.725,
2008-07-01, 01:44:04,VALID,1010.99,VALID,0,VALID,94.9864,VALID,0,VALID,22.8757,VALID,56,VALID,0.628125,
2008-07-01, 01:45:04,VALID,1010.99,VALID,0,VALID,95.0093,VALID,0,VALID,22.8368,VALID,79,VALID,0.529688,
2008-07-01, 01:46:04,VALID,1010.98,VALID,0,VALID,95.055,VALID,0,VALID,22.8368,VALID,79,VALID,0.26875,
2008-07-01, 01:47:04,VALID,1010.98,VALID,0,VALID,95.0855,VALID,0,VALID,22.8562,VALID,79,VALID,0,
2008-07-01, 01:48:04,VALID,1010.99,VALID,0,VALID,95.0931,VALID,0,VALID,22.8173,VALID,79,VALID,0,
2008-07-01, 01:49:04,VALID,1010.97,VALID,0,VALID,95.1313,VALID,0,VALID,22.8368,VALID,79,VALID,0,
2008-07-01, 01:50:04,VALID,1010.93,VALID,0,VALID,95.1618,VALID,0,VALID,22.8173,VALID,79,VALID,0.0492188,
2008-07-01, 01:51:04,VALID,1010.94,VALID,0,VALID,95.1694,VALID,0,VALID,22.8368,VALID,79,VALID,0,
2008-07-01, 01:52:04,VALID,1010.94,VALID,0,VALID,95.1542,VALID,0,VALID,22.8173,VALID,79,VALID,0,
2008-07-01, 01:53:04,VALID,1010.93,VALID,0,VALID,95.1923,VALID,0,VALID,22.8173,VALID,79,VALID,0,
2008-07-01, 01:54:04,VALID,1010.93,VALID,0,VALID,95.1923,VALID,0,VALID,22.8173,VALID,79,VALID,0,
2008-07-01, 01:55:04,VALID,1010.9,VALID,0,VALID,95.2228,VALID,0,VALID,22.858,VALID,79,VALID,0,
2008-07-01, 01:56:04,VALID,1010.88,VALID,0,VALID,95.2304,VALID,0,VALID,22.8173,VALID,79,VALID,0,
2008-07-01, 01:57:04,VALID,1010.86,VALID,0,VALID,95.2457,VALID,0,VALID,22.8173,VALID,79,VALID,0,
2008-07-01, 01:58:04,VALID,1010.87,VALID,0,VALID,95.2685,VALID,0,VALID,22.8173,VALID,79,VALID,0.160156,
2008-07-01, 01:59:04,VALID,1010.86,VALID,0,VALID,95.2838,VALID,0,VALID,22.7961,VALID,79,VALID,0,
2008-07-01, 02:00:04,VALID,1010.84,VALID,0,VALID,95.2762,VALID,0,VALID,22.835,VALID,79,VALID,0.2,
2008-07-01, 02:01:04,VALID,1010.83,VALID,0,VALID,95.2685,VALID,0,VALID,22.8173,VALID,79,VALID,0.439453,
2008-07-01, 02:02:04,VALID,1010.8,VALID,0,VALID,95.2609,VALID,0,VALID,22.8173,VALID,79,VALID,0.293359,
2008-07-01, 02:03:04,VALID,1010.79,VALID,0,VALID,95.2152,VALID,0,VALID,22.7978,VALID,79,VALID,0.176172,
2008-07-01, 02:04:04,VALID,1010.77,VALID,0,VALID,95.2304,VALID,0,VALID,22.7783,VALID,79,VALID,0.179297,
2008-07-01, 02:05:04,VALID,1010.73,VALID,0,VALID,95.2152,VALID,0,VALID,22.7783,VALID,79,VALID,0,
2008-07-01, 02:06:04,VALID,1010.72,VALID,0,VALID,95.2228,VALID,0,VALID,22.7588,VALID,79,VALID,0,
2008-07-01, 02:07:04,VALID,1010.69,VALID,0,VALID,95.2533,VALID,0,VALID,22.7588,VALID,79,VALID,0,
2008-07-01, 02:08:04,VALID,1010.68,VALID,0,VALID,95.2762,VALID,0,VALID,22.7783,VALID,79,VALID,0.0464844,
2008-07-01, 02:09:04,VALID,1010.67,VALID,0,VALID,95.299,VALID,0,VALID,22.7588,VALID,79,VALID,0.128906,
2008-07-01, 02:10:04,VALID,1010.63,VALID,0,VALID,95.2914,VALID,0,VALID,22.7394,VALID,79,VALID,0,
2008-07-01, 02:11:04,VALID,1010.64,VALID,0,VALID,95.2838,VALID,0,VALID,22.7411,VALID,79,VALID,0,
2008-07-01, 02:12:04,VALID,1010.61,VALID,0,VALID,95.2914,VALID,0,VALID,22.7199,VALID,79,VALID,0,
2008-07-01, 02:13:04,VALID,1010.59,VALID,0,VALID,95.3219,VALID,0,VALID,22.7394,VALID,79,VALID,0,
2008-07-01, 02:14:04,VALID,1010.59,VALID,0,VALID,95.299,VALID,0,VALID,22.7004,VALID,79,VALID,0,
2008-07-01, 02:15:04,VALID,1010.6,VALID,0,VALID,95.3219,VALID,0,VALID,22.7004,VALID,79,VALID,0,
2008-07-01, 02:16:04,VALID,1010.58,VALID,0,VALID,95.3372,VALID,0,VALID,22.7004,VALID,79,VALID,0,
2008-07-01, 02:17:04,VALID,1010.62,VALID,0,VALID,95.3677,VALID,0,VALID,22.7199,VALID,79,VALID,0,
2008-07-01, 02:18:04,VALID,1010.59,VALID,0,VALID,95.3982,VALID,0,VALID,22.7199,VALID,79,VALID,0,
2008-07-01, 02:19:04,VALID,1010.57,VALID,0,VALID,95.3905,VALID,0,VALID,22.6987,VALID,79,VALID,0,
2008-07-01, 02:20:04,VALID,1010.57,VALID,0,VALID,95.3982,VALID,0,VALID,22.7004,VALID,79,VALID,0,
2008-07-01, 02:21:04,VALID,1010.58,VALID,0,VALID,95.4058,VALID,0,VALID,22.7004,VALID,79,VALID,0,
2008-07-01, 02:22:04,VALID,1010.55,VALID,0,VALID,95.3829,VALID,0,VALID,22.7004,VALID,79,VALID,0,
2008-07-01, 02:23:04,VALID,1010.57,VALID,0,VALID,95.4058,VALID,0,VALID,22.7004,VALID,79,VALID,0,
2008-07-01, 02:24:04,VALID,1010.55,VALID,0,VALID,95.3982,VALID,0,VALID,22.6826,VALID,79,VALID,0,
2008-07-01, 02:25:04,VALID,1010.54,VALID,0,VALID,95.3753,VALID,0,VALID,22.6809,VALID,79,VALID,0,
2008-07-01, 02:26:04,VALID,1010.56,VALID,0,VALID,95.3982,VALID,0,VALID,22.6809,VALID,79,VALID,0,
2008-07-01, 02:27:04,VALID,1010.54,VALID,0,VALID,95.4134,VALID,0,VALID,22.7004,VALID,79,VALID,0,
2008-07-01, 02:28:04,VALID,1010.56,VALID,0,VALID,95.4058,VALID,0,VALID,22.7216,VALID,79,VALID,0,
2008-07-01, 02:29:04,VALID,1010.55,VALID,0,VALID,95.3982,VALID,0,VALID,22.7199,VALID,79,VALID,0,
2008-07-01, 02:30:04,VALID,1010.55,VALID,0,VALID,95.4134,VALID,0,VALID,22.7004,VALID,79,VALID,0,
2008-07-01, 02:31:04,VALID,1010.55,VALID,0,VALID,95.3829,VALID,0,VALID,22.7199,VALID,79,VALID,0,
2008-07-01, 02:32:04,VALID,1010.55,VALID,0,VALID,95.3677,VALID,0,VALID,22.7411,VALID,79,VALID,0,
2008-07-01, 02:33:04,VALID,1010.54,VALID,0,VALID,95.3372,VALID,0,VALID,22.7394,VALID,79,VALID,0,
2008-07-01, 02:34:04,VALID,1010.56,VALID,0,VALID,95.3448,VALID,0,VALID,22.7588,VALID,79,VALID,0,
2008-07-01, 02:35:04,VALID,1010.58,VALID,0,VALID,95.3143,VALID,0,VALID,22.7588,VALID,79,VALID,0,
2008-07-01, 02:36:04,VALID,1010.62,VALID,0,VALID,95.3143,VALID,0,VALID,22.7588,VALID,79,VALID,0,
2008-07-01, 02:37:04,VALID,1010.63,VALID,0,VALID,95.2533,VALID,0,VALID,22.7783,VALID,79,VALID,0,
2008-07-01, 02:38:04,VALID,1010.62,VALID,0,VALID,95.2609,VALID,0,VALID,22.7783,VALID,79,VALID,0,
2008-07-01, 02:39:04,VALID,1010.66,VALID,0,VALID,95.1999,VALID,0,VALID,22.7978,VALID,79,VALID,0,
2008-07-01, 02:40:04,VALID,1010.67,VALID,0,VALID,95.1542,VALID,0,VALID,22.7978,VALID,79,VALID,0,
2008-07-01, 02:41:04,VALID,1010.68,VALID,0,VALID,95.0931,VALID,0,VALID,22.8173,VALID,79,VALID,0,
2008-07-01, 02:42:04,VALID,1010.69,VALID,0,VALID,95.055,VALID,0,VALID,22.8173,VALID,79,VALID,0,
2008-07-01, 02:43:04,VALID,1010.69,VALID,0,VALID,95.0321,VALID,0,VALID,22.8173,VALID,79,VALID,0,
2008-07-01, 02:44:04,VALID,1010.69,VALID,0,VALID,94.9864,VALID,0,VALID,22.8173,VALID,79,VALID,0,
2008-07-01, 02:45:04,VALID,1010.73,VALID,0,VALID,94.9559,VALID,0,VALID,22.8173,VALID,79,VALID,0,
2008-07-01, 02:46:04,VALID,1010.71,VALID,0,VALID,94.933,VALID,0,VALID,22.8173,VALID,79,VALID,0,
2008-07-01, 02:47:04,VALID,1010.73,VALID,0,VALID,94.9101,VALID,0,VALID,22.7783,VALID,79,VALID,0.180078,
2008-07-01, 02:48:04,VALID,1010.79,VALID,0,VALID,94.8873,VALID,0,VALID,22.7783,VALID,78,VALID,0.293359,
2008-07-01, 02:49:04,VALID,1010.76,VALID,0,VALID,94.8644,VALID,0,VALID,22.7995,VALID,78,VALID,0.405469,
2008-07-01, 02:50:04,VALID,1010.76,VALID,0,VALID,94.8644,VALID,0,VALID,22.7783,VALID,68,VALID,0.461328,
2008-07-01, 02:51:04,VALID,1010.8,VALID,0,VALID,94.8415,VALID,0,VALID,22.7606,VALID,53,VALID,0.49375,
2008-07-01, 02:52:04,VALID,1010.82,VALID,0,VALID,94.8491,VALID,0,VALID,22.78,VALID,51,VALID,0.371875,
2008-07-01, 02:53:04,VALID,1010.85,VALID,0,VALID,94.8796,VALID,0,VALID,22.7606,VALID,51,VALID,0.228125,
2008-07-01, 02:54:04,VALID,1010.81,VALID,0,VALID,94.8796,VALID,0,VALID,22.7394,VALID,51,VALID,0.299219,
2008-07-01, 02:55:04,VALID,1010.83,VALID,0,VALID,94.9101,VALID,0,VALID,22.7411,VALID,50,VALID,0.125,
2008-07-01, 02:56:04,VALID,1010.82,VALID,0,VALID,94.9406,VALID,0,VALID,22.7199,VALID,50,VALID,0.163672,
2008-07-01, 02:57:04,VALID,1010.8,VALID,0,VALID,95.0016,VALID,0,VALID,22.7411,VALID,46,VALID,0.348437,
2008-07-01, 02:58:04,VALID,1010.8,VALID,0,VALID,95.0398,VALID,0,VALID,22.7411,VALID,44,VALID,0.326562,
2008-07-01, 02:59:04,VALID,1010.78,VALID,0,VALID,95.0245,VALID,0,VALID,22.7216,VALID,16,VALID,0.312109,
2008-07-01, 03:00:04,VALID,1010.77,VALID,0,VALID,95.0398,VALID,0,VALID,22.7216,VALID,16,VALID,0.0699219,
2008-07-01, 03:01:04,VALID,1010.79,VALID,0,VALID,95.0321,VALID,0,VALID,22.7004,VALID,16,VALID,0,
2008-07-01, 03:02:04,VALID,1010.79,VALID,0,VALID,95.0398,VALID,0,VALID,22.6809,VALID,16,VALID,0,
2008-07-01, 03:03:04,VALID,1010.77,VALID,0,VALID,95.055,VALID,0,VALID,22.6809,VALID,16,VALID,0.000390625,
2008-07-01, 03:04:04,VALID,1010.77,VALID,0,VALID,95.055,VALID,0,VALID,22.6809,VALID,16,VALID,0.0902344,
2008-07-01, 03:05:04,VALID,1010.75,VALID,0,VALID,95.0626,VALID,0,VALID,22.6809,VALID,16,VALID,0.0652344,
2008-07-01, 03:06:04,VALID,1010.75,VALID,0,VALID,95.055,VALID,0,VALID,22.6614,VALID,16,VALID,0.213281,
2008-07-01, 03:07:04,VALID,1010.71,VALID,0,VALID,95.0245,VALID,0,VALID,22.6809,VALID,22,VALID,0.366797,
2008-07-01, 03:08:04,VALID,1010.71,VALID,0,VALID,94.9788,VALID,0,VALID,22.6614,VALID,26,VALID,0.246484,
2008-07-01, 03:09:04,VALID,1010.71,VALID,0,VALID,94.9635,VALID,0,VALID,22.6632,VALID,26,VALID,0.295703,
2008-07-01, 03:10:04,VALID,1010.7,VALID,0,VALID,94.9406,VALID,0,VALID,22.6826,VALID,26,VALID,0.1875,
2008-07-01, 03:11:04,VALID,1010.66,VALID,0,VALID,94.9254,VALID,0,VALID,22.642,VALID,26,VALID,0.201953,
2008-07-01, 03:12:04,VALID,1010.67,VALID,0,VALID,94.9178,VALID,0,VALID,22.642,VALID,26,VALID,0.202344,
2008-07-01, 03:13:04,VALID,1010.64,VALID,0,VALID,94.9406,VALID,0,VALID,22.6614,VALID,26,VALID,0.00117188,
2008-07-01, 03:14:04,VALID,1010.64,VALID,0,VALID,95.0016,VALID,0,VALID,22.6614,VALID,26,VALID,0.0746094,
2008-07-01, 03:15:04,VALID,1010.6,VALID,0,VALID,95.0169,VALID,0,VALID,22.6809,VALID,24,VALID,0.221094,
2008-07-01, 03:16:04,VALID,1010.62,VALID,0,VALID,95.0321,VALID,0,VALID,22.6614,VALID,8,VALID,0.166406,
2008-07-01, 03:17:04,VALID,1010.61,VALID,0,VALID,95.0474,VALID,0,VALID,22.6809,VALID,8,VALID,0.170312,
2008-07-01, 03:18:04,VALID,1010.58,VALID,0,VALID,95.0474,VALID,0,VALID,22.6809,VALID,8,VALID,0.320313,
2008-07-01, 03:19:04,VALID,1010.56,VALID,0,VALID,95.0703,VALID,0,VALID,22.6809,VALID,8,VALID,0.206641,
2008-07-01, 03:20:04,VALID,1010.55,VALID,0,VALID,95.1465,VALID,0,VALID,22.7004,VALID,8,VALID,0.222656,
2008-07-01, 03:21:04,VALID,1010.58,VALID,0,VALID,95.1999,VALID,0,VALID,22.7199,VALID,8,VALID,0.214453,
2008-07-01, 03:22:04,VALID,1010.58,VALID,0,VALID,95.2457,VALID,0,VALID,22.7199,VALID,8,VALID,0.162891,
2008-07-01, 03:23:04,VALID,1010.57,VALID,0,VALID,95.2457,VALID,0,VALID,22.7394,VALID,8,VALID,0.139844,
2008-07-01, 03:24:04,VALID,1010.59,VALID,0,VALID,95.2457,VALID,0,VALID,22.7394,VALID,8,VALID,0,
2008-07-01, 03:25:04,VALID,1010.58,VALID,0,VALID,95.2075,VALID,0,VALID,22.7606,VALID,8,VALID,0,
2008-07-01, 03:26:04,VALID,1010.58,VALID,0,VALID,95.2304,VALID,0,VALID,22.7606,VALID,8,VALID,0,
2008-07-01, 03:27:04,VALID,1010.61,VALID,0,VALID,95.1999,VALID,0,VALID,22.7606,VALID,8,VALID,0,
2008-07-01, 03:28:04,VALID,1010.58,VALID,0,VALID,95.2304,VALID,0,VALID,22.78,VALID,8,VALID,0,
2008-07-01, 03:29:04,VALID,1010.6,VALID,0,VALID,95.2075,VALID,0,VALID,22.7995,VALID,6,VALID,0.305078,
2008-07-01, 03:30:04,VALID,1010.6,VALID,0,VALID,95.1465,VALID,0,VALID,22.78,VALID,7,VALID,0.423828,
2008-07-01, 03:31:04,VALID,1010.56,VALID,0,VALID,95.055,VALID,0,VALID,22.7995,VALID,27,VALID,0.155078,
2008-07-01, 03:32:04,VALID,1010.56,VALID,0,VALID,95.0093,VALID,0,VALID,22.7783,VALID,27,VALID,0.0890625,
2008-07-01, 03:33:04,VALID,1010.58,VALID,0,VALID,95.0016,VALID,0,VALID,22.7978,VALID,27,VALID,0,
2008-07-01, 03:34:04,VALID,1010.59,VALID,0,VALID,94.9864,VALID,0,VALID,22.8173,VALID,27,VALID,0,
2008-07-01, 03:35:04,VALID,1010.58,VALID,0,VALID,94.9406,VALID,0,VALID,22.8173,VALID,27,VALID,0.0265625,
2008-07-01, 03:36:04,VALID,1010.6,VALID,0,VALID,94.9025,VALID,0,VALID,22.8385,VALID,29,VALID,0.160938,
2008-07-01, 03:37:04,VALID,1010.6,VALID,0,VALID,94.9406,VALID,0,VALID,22.8775,VALID,29,VALID,0.264062,
2008-07-01, 03:38:04,VALID,1010.61,VALID,0,VALID,94.8949,VALID,0,VALID,22.8775,VALID,64,VALID,0.530469,
2008-07-01, 03:39:04,VALID,1010.62,VALID,0,VALID,94.7424,VALID,0,VALID,22.8562,VALID,65,VALID,0.423047,
2008-07-01, 03:40:04,VALID,1010.65,VALID,0,VALID,94.6661,VALID,0,VALID,22.8969,VALID,69,VALID,0.360547,
2008-07-01, 03:41:04,VALID,1010.66,VALID,0,VALID,94.5822,VALID,0,VALID,22.8757,VALID,71,VALID,0.191406,
2008-07-01, 03:42:04,VALID,1010.65,VALID,0,VALID,94.506,VALID,0,VALID,22.8952,VALID,71,VALID,0.0675781,
2008-07-01, 03:43:04,VALID,1010.67,VALID,0,VALID,94.5746,VALID,0,VALID,22.9554,VALID,71,VALID,0,
2008-07-01, 03:44:04,VALID,1010.63,VALID,0,VALID,94.4755,VALID,0,VALID,22.9359,VALID,71,VALID,0.107031,
2008-07-01, 03:45:04,VALID,1010.63,VALID,0,VALID,94.3839,VALID,0,VALID,22.9554,VALID,71,VALID,0,
2008-07-01, 03:46:04,VALID,1010.59,VALID,0,VALID,94.4145,VALID,0,VALID,22.9536,VALID,71,VALID,0.269922,
2008-07-01, 03:47:04,VALID,1010.61,VALID,0,VALID,94.3306,VALID,0,VALID,22.9749,VALID,71,VALID,0,
2008-07-01, 03:48:04,VALID,1010.59,VALID,0,VALID,94.2238,VALID,0,VALID,22.9731,VALID,71,VALID,0,
2008-07-01, 03:49:04,VALID,1010.59,VALID,0,VALID,94.2009,VALID,0,VALID,22.9731,VALID,71,VALID,0,
2008-07-01, 03:50:04,VALID,1010.58,VALID,0,VALID,94.2238,VALID,0,VALID,22.9926,VALID,30,VALID,0,
2008-07-01, 03:51:04,VALID,1010.58,VALID,0,VALID,93.9798,VALID,0,VALID,23.0138,VALID,4,VALID,0.447266,
2008-07-01, 03:52:04,VALID,1010.56,VALID,0,VALID,93.8502,VALID,0,VALID,23.0121,VALID,4,VALID,0.365234,